Weather History for Clinton, OK

Change the Weather History Date:

Friday, November 8, 2013

  Actual Average (KCSM) Record (KCSM)
Temperature  
Mean Temperature 50 °F -  
Max Temperature 64 °F 58 °F 88 °F (2005)
Min Temperature 37 °F 41 °F 33 °F (2000)
Degree Days  
Heating Degree Days 14    
Moisture  
Dew Point 31 °F    
Average Humidity 52    
Maximum Humidity 81    
Minimum Humidity 23    
Precipitation  
Precipitation 0.00 in - - ()
Sea Level Pressure  
Sea Level Pressure 30.14 in    
Wind  
Wind Speed 14 mph (South)    
Max Wind Speed 28 mph    
Max Gust Speed 39 mph    
Visibility 10 miles    
Events      
Averages and records for this station are not official NWS values.
T = Trace of Precipitation, MM = Missing Value Source: NWS Daily Summary

Daily Weather History Graph

Daily Weather History Graph

Search for Another Location

Airport:

Trip Planner

Search our weather history database for the weather conditions in past years. The results will help you decide how hot, cold, wet, or windy it might be!

Date:

Astronomy

Nov. 08, 2013 Rise Set
Actual Time 7:04 AM CST 5:33 PM CST
Civil Twilight 6:37 AM CST 6:00 PM CST
Nautical Twilight 6:07 AM CST 6:31 PM CST
Astronomical Twilight 5:37 AM CST 7:01 PM CST
Moon 12:01 PM CST (11/8) 10:55 PM CST (11/8)
Length of Visible Light 11h 22m
Length of Day
10h 29m
Waxing Crescent, 33% of the Moon is Illuminated
Nov 8
Waxing Crescent
Nov 9
First Quarter
Nov 17
Full
Nov 25
Last Quarter
Dec 2
New

Hourly Weather History & Observations

Time (CST) Temp. Windchill Dew Point Humidity Pressure Visibility Wind Dir Wind Speed Gust Speed Precip Events Conditions
12:15 AM 42.8 °F 37.0 °F 32.0 °F 66% 30.34 in 10.0 mi SSE 10.4 mph - N/A   Clear
12:35 AM 42.8 °F 38.0 °F 32.0 °F 66% 30.33 in 10.0 mi SSE 8.1 mph - N/A   Clear
12:55 AM 42.8 °F 37.5 °F 32.0 °F 66% 30.33 in 10.0 mi SSE 9.2 mph - N/A   Clear
1:15 AM 42.8 °F 38.0 °F 32.0 °F 66% 30.32 in 10.0 mi SSE 8.1 mph - N/A   Clear
1:35 AM 42.8 °F 37.0 °F 32.0 °F 66% 30.32 in 10.0 mi SSE 10.4 mph - N/A   Clear
1:55 AM 41.0 °F 34.7 °F 32.0 °F 70% 30.31 in 10.0 mi South 10.4 mph - N/A   Clear
2:15 AM 41.0 °F 35.2 °F 32.0 °F 70% 30.30 in 10.0 mi South 9.2 mph - N/A   Clear
2:35 AM 41.0 °F 34.7 °F 32.0 °F 70% 30.30 in 10.0 mi South 10.4 mph - N/A   Clear
2:55 AM 39.2 °F 32.0 °F 32.0 °F 75% 30.29 in 10.0 mi South 11.5 mph - N/A   Clear
3:15 AM 39.2 °F 32.0 °F 32.0 °F 75% 30.29 in 10.0 mi South 11.5 mph - N/A   Clear
3:35 AM 39.2 °F 32.5 °F 32.0 °F 75% 30.28 in 10.0 mi SSE 10.4 mph - N/A   Clear
3:55 AM 41.0 °F 34.7 °F 32.0 °F 70% 30.28 in 10.0 mi SSE 10.4 mph - N/A   Clear
4:15 AM 39.2 °F 32.5 °F 32.0 °F 75% 30.27 in 10.0 mi SSE 10.4 mph - N/A   Clear
4:35 AM 39.2 °F 32.5 °F 32.0 °F 75% 30.26 in 10.0 mi SSE 10.4 mph - N/A   Clear
4:55 AM 37.4 °F 30.8 °F 32.0 °F 81% 30.26 in 10.0 mi South 9.2 mph - N/A   Clear
5:15 AM 37.4 °F 30.3 °F 32.0 °F 81% 30.25 in 10.0 mi South 10.4 mph - N/A   Clear
5:35 AM 37.4 °F 30.8 °F 32.0 °F 81% 30.25 in 10.0 mi South 9.2 mph - N/A   Clear
5:55 AM 37.4 °F 30.8 °F 32.0 °F 81% 30.25 in 10.0 mi South 9.2 mph - N/A   Clear
6:15 AM 37.4 °F 30.8 °F 32.0 °F 81% 30.24 in 10.0 mi South 9.2 mph - N/A   Clear
6:35 AM 37.4 °F 31.4 °F 32.0 °F 81% 30.24 in 10.0 mi South 8.1 mph - N/A   Clear
6:55 AM 37.4 °F 31.4 °F 32.0 °F 81% 30.23 in 10.0 mi South 8.1 mph - N/A   Clear
7:15 AM 39.2 °F 33.6 °F 32.0 °F 75% 30.23 in 10.0 mi South 8.1 mph - N/A   Clear
7:35 AM 37.4 °F 32.1 °F 32.0 °F 81% 30.23 in 10.0 mi South 6.9 mph - N/A   Clear
7:55 AM 37.4 °F 31.4 °F 32.0 °F 81% 30.24 in 10.0 mi South 8.1 mph - N/A   Clear
8:15 AM 39.2 °F 33.0 °F 32.0 °F 75% 30.23 in 10.0 mi South 9.2 mph - N/A   Clear
8:35 AM 41.0 °F 34.3 °F 32.0 °F 70% 30.23 in 10.0 mi South 11.5 mph - N/A   Clear
8:55 AM 42.8 °F 35.4 °F 32.0 °F 66% 30.23 in 10.0 mi South 15.0 mph - N/A   Clear
9:15 AM 44.6 °F 38.1 °F 32.0 °F 61% 30.23 in 10.0 mi South 13.8 mph - N/A   Clear
9:35 AM 46.4 °F 39.8 °F 32.0 °F 57% 30.23 in 10.0 mi South 16.1 mph - N/A   Clear
9:55 AM 50.0 °F - 32.0 °F 50% 30.22 in 10.0 mi SSW 18.4 mph 23.0 mph N/A   Clear
10:15 AM 50.0 °F - 33.8 °F 54% 30.22 in 10.0 mi SSW 18.4 mph 25.3 mph N/A   Clear
10:35 AM 53.6 °F - 33.8 °F 47% 30.21 in 10.0 mi South 19.6 mph 23.0 mph N/A   Clear
10:55 AM 53.6 °F - 32.0 °F 44% 30.20 in 10.0 mi South 21.9 mph 27.6 mph N/A   Clear
11:15 AM 55.4 °F - 32.0 °F 41% 30.19 in 10.0 mi South 26.5 mph 32.2 mph N/A   Clear
11:35 AM 55.4 °F - 32.0 °F 41% 30.18 in 10.0 mi South 21.9 mph 29.9 mph N/A   Clear
11:55 AM 55.4 °F - 30.2 °F 38% 30.17 in 10.0 mi SSW 27.6 mph 34.5 mph N/A   Clear
12:15 PM 57.2 °F - 32.0 °F 38% 30.15 in 10.0 mi SSW 24.2 mph 33.4 mph N/A   Clear
12:35 PM 59.0 °F - 33.8 °F 39% 30.14 in 10.0 mi South 19.6 mph 25.3 mph N/A   Clear
12:55 PM 59.0 °F - 33.8 °F 39% 30.12 in 10.0 mi South 19.6 mph 26.5 mph N/A   Clear
1:15 PM 60.8 °F - 33.8 °F 36% 30.11 in 10.0 mi SSW 23.0 mph 27.6 mph N/A   Clear
1:35 PM 60.8 °F - 30.2 °F 31% 30.10 in 10.0 mi SSW 26.5 mph 31.1 mph N/A   Clear
1:55 PM 60.8 °F - 32.0 °F 34% 30.08 in 10.0 mi South 23.0 mph 31.1 mph N/A   Clear
2:15 PM 62.6 °F - 28.4 °F 27% 30.06 in 10.0 mi South 26.5 mph 34.5 mph N/A   Clear
2:35 PM 62.6 °F - 28.4 °F 27% 30.05 in 10.0 mi South 24.2 mph 33.4 mph N/A   Clear
2:55 PM 64.4 °F - 28.4 °F 26% 30.04 in 10.0 mi South 25.3 mph 31.1 mph N/A   Clear
3:15 PM 64.4 °F - 26.6 °F 24% 30.03 in 10.0 mi South 23.0 mph 39.1 mph N/A   Clear
3:35 PM 62.6 °F - 26.6 °F 26% 30.02 in 10.0 mi South 25.3 mph 36.8 mph N/A   Clear
3:55 PM 62.6 °F - 26.6 °F 26% 30.02 in 10.0 mi South 21.9 mph 34.5 mph N/A   Clear
4:15 PM 60.8 °F - 28.4 °F 29% 30.02 in 10.0 mi South 19.6 mph 31.1 mph N/A   Clear
4:35 PM 60.8 °F - 26.6 °F 27% 30.01 in 10.0 mi South 20.7 mph 26.5 mph N/A   Clear
4:55 PM 60.8 °F - 23.0 °F 23% 30.00 in 10.0 mi South 21.9 mph 27.6 mph N/A   Clear
5:15 PM 59.0 °F - 26.6 °F 29% 30.00 in 10.0 mi South 18.4 mph 24.2 mph N/A   Clear
5:35 PM 59.0 °F - 24.8 °F 27% 30.01 in 10.0 mi South 18.4 mph 25.3 mph N/A   Clear
5:55 PM 57.2 °F - 24.8 °F 29% 30.00 in 10.0 mi South 21.9 mph 27.6 mph N/A   Clear
6:15 PM 57.2 °F - 24.8 °F 29% 30.01 in 10.0 mi South 21.9 mph 26.5 mph N/A   Clear
6:35 PM 55.4 °F - 24.8 °F 31% 30.00 in 10.0 mi South 17.3 mph - N/A   Scattered Clouds
6:55 PM 55.4 °F - 26.6 °F 33% 30.00 in 10.0 mi South 16.1 mph - N/A   Scattered Clouds
7:15 PM 53.6 °F - 28.4 °F 38% 30.00 in 10.0 mi South 17.3 mph - N/A   Scattered Clouds
7:35 PM 53.6 °F - 26.6 °F 35% 30.00 in 10.0 mi South 18.4 mph 24.2 mph N/A   Clear
7:55 PM 53.6 °F - 26.6 °F 35% 30.00 in 10.0 mi SSW 20.7 mph 28.8 mph N/A   Scattered Clouds
8:15 PM 53.6 °F - 26.6 °F 35% 30.02 in 10.0 mi South 17.3 mph 25.3 mph N/A   Scattered Clouds
8:35 PM 53.6 °F - 28.4 °F 38% 30.02 in 10.0 mi South 17.3 mph - N/A   Scattered Clouds
8:55 PM 53.6 °F - 28.4 °F 38% 30.01 in 10.0 mi South 17.3 mph - N/A   Scattered Clouds
9:15 PM 51.8 °F - 30.2 °F 44% 30.02 in 10.0 mi South 16.1 mph 20.7 mph N/A   Clear
9:35 PM 51.8 °F - 30.2 °F 44% 30.02 in 10.0 mi South 12.7 mph 20.7 mph N/A   Clear
9:55 PM 51.8 °F - 32.0 °F 47% 30.03 in 10.0 mi South 15.0 mph 18.4 mph N/A   Mostly Cloudy
10:15 PM 51.8 °F - 32.0 °F 47% 30.02 in 10.0 mi South 20.7 mph - N/A   Mostly Cloudy
10:35 PM 51.8 °F - 32.0 °F 47% 30.03 in 10.0 mi South 17.3 mph - N/A   Scattered Clouds
10:55 PM 50.0 °F - 33.8 °F 54% 30.03 in 10.0 mi South 16.1 mph 21.9 mph N/A   Clear
11:15 PM 50.0 °F - 35.6 °F 58% 30.02 in 10.0 mi South 18.4 mph 23.0 mph N/A   Scattered Clouds
11:35 PM 50.0 °F - 35.6 °F 58% 30.02 in 10.0 mi South 17.3 mph 24.2 mph N/A   Clear
11:55 PM 48.2 °F - 35.6 °F 62% 30.02 in 10.0 mi South 17.3 mph 21.9 mph N/A   Clear